OneWeb SL0595

operational
NORAD ID: 54661 Int'l Des: 2022-166 Owner: ONEWEBN Country: UK Constellation: oneweb
LEOCIRCULARPOLARONEWEB_TYPE

About OneWeb SL0595

Description loading...

Live Position

Loading 3D Globe...

Upcoming Passes

Altitude History

Altitude vs Time

uPlot chart will show altitude changes over time

Two-Line Element Set

1 54661U 22166V 26047.14205134 -.00000067 00000-0 -19410-3 0 9991
2 54661 87.9175 268.1130 0001756 94.5472 265.5863 13.21825701155547
Epoch: Feb 16, 2026 • Age: 6 hours

Current Status

Altitude 1180.7 km
Velocity 7.27 km/s
Sub-Earth Point 28.04°N, 12.2°W
Launch Date Dec 8, 2022
Age 3.1 years
Type internet

Technical Details

Classification Payload
Mass 148.00 kg
Dry Mass 140.00 kg
Total Mass 148.00 kg
Length 1.30 m
Diameter 1.00 m
Span 5.00 m
Shape Trapezoid+2 pan
Manufacturer ONEWUS
Bus Type ARROW
Phase Status In Orbit
Owner/State ONEWEBN/UK

Large Constellations

Loading constellations...